| time (UTC) | temp C | wind direction | speed KPH | gust KPH | rain 1hr cm | rain 24hr cm | rain mn cm | humidity % | barometer mb |
| 20260901232944 | 35 | 136 | 6.4 | 12.9 | 0.00 | 0.00 | 0.00 | 43 | 1009.8 |
| 20260901231928 | 36 | 87 | 3.2 | 14.5 | 0.00 | 0.00 | 0.00 | 40 | 1009.6 |
| 20260901225826 | 37 | 87 | 6.4 | 14.5 | 0.00 | 0.00 | 0.00 | 38 | 1009.6 |
| 20260901224835 | 37 | 98 | 3.2 | 12.9 | 0.00 | 0.00 | 0.00 | 37 | 1009.6 |
| 20260901223801 | 37 | 89 | 3.2 | 12.9 | 0.00 | 0.00 | 0.00 | 37 | 1009.5 |
| 20260901222736 | 37 | 167 | 3.2 | 9.7 | 0.00 | 0.00 | 0.00 | 38 | 1009.6 |
| 20260901221749 | 37 | 84 | 1.6 | 9.7 | 0.00 | 0.00 | 0.00 | 38 | 1009.6 |
| 20260901220748 | 37 | 65 | 1.6 | 9.7 | 0.00 | 0.00 | 0.00 | 38 | 1009.7 |
| 20260901215804 | 37 | 50 | 3.2 | 11.3 | 0.00 | 0.00 | 0.00 | 39 | 1009.8 |
| 20260901214800 | 37 | 92 | 4.8 | 11.3 | 0.00 | 0.00 | 0.00 | 38 | 1009.9 |
| 20260901213743 | 37 | 277 | 3.2 | 11.3 | 0.00 | 0.00 | 0.00 | 38 | 1009.9 |
| 20260901210414 | 36 | 171 | 3.2 | 19.3 | 0.00 | 0.00 | 0.00 | 40 | 1010.3 |
| 20260901205346 | 36 | 83 | 4.8 | 19.3 | 0.00 | 0.00 | 0.00 | 42 | 1010.5 |
| 20260901204352 | 37 | 5 | 1.6 | 11.3 | 0.00 | 0.00 | 0.00 | 40 | 1010.6 |
| 20260901203352 | 37 | 183 | 3.2 | 11.3 | 0.00 | 0.00 | 0.00 | 41 | 1010.7 |
| 20260901202316 | 36 | 117 | 3.2 | 14.5 | 0.00 | 0.00 | 0.00 | 44 | 1010.9 |
| 20260901201336 | 36 | 157 | 3.2 | 19.3 | 0.00 | 0.00 | 0.00 | 45 | 1011.0 |
| 20260901200331 | 35 | 116 | 3.2 | 19.3 | 0.00 | 0.00 | 0.00 | 45 | 1011.2 |
| 20260901195345 | 36 | 33 | 1.6 | 17.7 | 0.00 | 0.00 | 0.00 | 45 | 1011.4 |
| 20260901194408 | 36 | 107 | 4.8 | 17.7 | 0.00 | 0.00 | 0.00 | 44 | 1011.5 |
| 20260901193336 | 36 | 117 | 4.8 | 14.5 | 0.00 | 0.00 | 0.00 | 44 | 1011.6 |
| 20260901192317 | 35 | 129 | 1.6 | 12.9 | 0.00 | 0.00 | 0.00 | 46 | 1011.6 |
| 20260901191319 | 35 | 184 | 1.6 | 11.3 | 0.00 | 0.00 | 0.00 | 45 | 1011.7 |
| 20260901185209 | 36 | 259 | 3.2 | 16.1 | 0.00 | 0.00 | 0.00 | 46 | 1012.0 |
| 20260901184228 | 35 | 108 | 3.2 | 12.9 | 0.00 | 0.00 | 0.00 | 48 | 1012.1 |
| 20260901183253 | 35 | 117 | 3.2 | 17.7 | 0.00 | 0.00 | 0.00 | 46 | 1012.4 |
| 20260901182240 | 35 | 119 | 6.4 | 17.7 | 0.00 | 0.00 | 0.00 | 46 | 1012.5 |
| 20260901181301 | 35 | 131 | 4.8 | 16.1 | 0.00 | 0.00 | 0.00 | 47 | 1012.6 |
| 20260901180255 | 35 | 318 | 4.8 | 16.1 | 0.00 | 0.00 | 0.00 | 47 | 1012.7 |
| 20260901175259 | 35 | 132 | 4.8 | 17.7 | 0.00 | 0.00 | 0.00 | 48 | 1013.0 |
| 20260901174306 | 35 | 157 | 4.8 | 17.7 | 0.00 | 0.00 | 0.00 | 47 | 1013.2 |
| 20260901172108 | 35 | 134 | 3.2 | 9.7 | 0.00 | 0.00 | 0.00 | 49 | 1013.4 |
| 20260901165944 | 34 | 164 | 4.8 | 16.1 | 0.00 | 0.00 | 0.00 | 50 | 1013.6 |
| 20260901164929 | 34 | 101 | 3.2 | 12.9 | 0.00 | 0.00 | 0.00 | 49 | 1013.7 |
| 20260901163914 | 35 | 120 | 3.2 | 12.9 | 0.00 | 0.00 | 0.00 | 49 | 1013.8 |
| 20260901162848 | 34 | 198 | 1.6 | 9.7 | 0.00 | 0.00 | 0.00 | 51 | 1013.8 |
| 20260901160647 | 33 | 228 | 1.6 | 8.0 | 0.00 | 0.00 | 0.00 | 53 | 1014.0 |
| 20260901155648 | 32 | 218 | 1.6 | 6.4 | 0.00 | 0.00 | 0.00 | 54 | 1014.0 |
| 20260901154615 | 32 | 317 | 1.6 | 4.8 | 0.00 | 0.00 | 0.00 | 56 | 1014.0 |
| 20260901153629 | 32 | 44 | 0.0 | 6.4 | 0.00 | 0.00 | 0.00 | 56 | 1014.0 |
| 20260901151433 | 31 | 244 | 0.0 | 3.2 | 0.00 | 0.00 | 0.00 | 62 | 1013.9 |
| 20260901150424 | 30 | 252 | 1.6 | 8.0 | 0.00 | 0.00 | 0.00 | 64 | 1014.0 |
| 20260901145403 | 30 | 302 | 1.6 | 8.0 | 0.00 | 0.00 | 0.00 | 69 | 1014.0 |
| 20260901143323 | 29 | 222 | 1.6 | 11.3 | 0.00 | 0.00 | 0.00 | 72 | 1014.0 |
| 20260901142348 | 28 | 238 | 1.6 | 11.3 | 0.00 | 0.00 | 0.00 | 74 | 1014.0 |
| 20260901141324 | 28 | 157 | 0.0 | 1.6 | 0.00 | 0.00 | 0.00 | 78 | 1014.2 |
| 20260901140329 | 28 | 238 | 1.6 | 9.7 | 0.00 | 0.00 | 0.00 | 79 | 1014.2 |
| 20260901135325 | 27 | 337 | 1.6 | 9.7 | 0.00 | 0.00 | 0.00 | 82 | 1014.2 |
| 20260901134326 | 27 | 283 | 1.6 | 9.7 | 0.00 | 0.00 | 0.00 | 83 | 1014.0 |
| 20260901133345 | 26 | 240 | 1.6 | 8.0 | 0.00 | 0.00 | 0.00 | 86 | 1013.8 |
| 20260901132339 | 26 | 259 | 0.0 | 8.0 | 0.00 | 0.00 | 0.00 | 87 | 1013.7 |
| 20260901130152 | 25 | 238 | 0.0 | 3.2 | 0.00 | 0.00 | 0.00 | 90 | 1013.6 |
| 20260901125213 | 25 | 238 | 0.0 | 3.2 | 0.00 | 0.00 | 0.00 | 90 | 1013.5 |
| 20260901124213 | 24 | 238 | 0.0 | 0.0 | 0.00 | 0.00 | 0.00 | 90 | 1013.4 |
| 20260901123213 | 24 | 238 | 0.0 | 1.6 | 0.00 | 0.00 | 0.00 | 90 | 1013.2 |
| 20260901122225 | 24 | 238 | 0.0 | 1.6 | 0.00 | 0.00 | 0.00 | 90 | 1013.2 |
| 20260901121202 | 24 | 238 | 0.0 | 0.0 | 0.00 | 0.00 | 0.00 | 89 | 1013.2 |
| 20260901120209 | 25 | 238 | 0.0 | 3.2 | 0.00 | 0.00 | 0.00 | 89 | 1013.2 |
| 20260901115139 | 25 | 252 | 0.0 | 1.6 | 0.00 | 0.00 | 0.00 | 88 | 1013.2 |
| 20260901114144 | 25 | 257 | 0.0 | 6.4 | 0.00 | 0.00 | 0.00 | 88 | 1013.2 |
| 20260901113119 | 25 | 234 | 0.0 | 6.4 | 0.00 | 0.00 | 0.00 | 88 | 1013.0 |
| 20260901110947 | 25 | 178 | 0.0 | 4.8 | 0.00 | 0.00 | 0.00 | 87 | 1012.8 |
| 20260901105948 | 25 | 236 | 0.0 | 4.8 | 0.00 | 0.00 | 0.00 | 87 | 1012.9 |
| 20260901104941 | 25 | 234 | 1.6 | 8.0 | 0.00 | 0.00 | 0.00 | 87 | 1012.9 |
| 20260901102758 | 25 | 215 | 1.6 | 9.7 | 0.00 | 0.00 | 0.00 | 86 | 1012.8 |
| 20260901101747 | 25 | 230 | 1.6 | 9.7 | 0.00 | 0.00 | 0.00 | 86 | 1012.9 |
| 20260901100729 | 25 | 194 | 1.6 | 8.0 | 0.00 | 0.00 | 0.00 | 85 | 1013.0 |
| 20260901095744 | 25 | 219 | 3.2 | 8.0 | 0.00 | 0.00 | 0.00 | 84 | 1013.0 |
| 20260901093628 | 25 | 175 | 3.2 | 9.7 | 0.00 | 0.00 | 0.00 | 83 | 1013.2 |
| 20260901092610 | 25 | 194 | 3.2 | 8.0 | 0.00 | 0.00 | 0.00 | 82 | 1013.2 |
| 20260901091557 | 25 | 175 | 3.2 | 11.3 | 0.00 | 0.00 | 0.00 | 82 | 1013.2 |
| 20260901090559 | 25 | 207 | 1.6 | 11.3 | 0.00 | 0.00 | 0.00 | 82 | 1013.1 |
| 20260901084514 | 25 | 210 | 1.6 | 8.0 | 0.00 | 0.00 | 0.00 | 83 | 1013.0 |
| 20260901083536 | 25 | 169 | 1.6 | 8.0 | 0.00 | 0.00 | 0.00 | 83 | 1012.9 |
| 20260901082557 | 26 | 221 | 3.2 | 9.7 | 0.00 | 0.00 | 0.00 | 82 | 1013.0 |
| 20260901081529 | 26 | 191 | 3.2 | 9.7 | 0.00 | 0.00 | 0.00 | 82 | 1013.0 |
| 20260901080536 | 26 | 186 | 3.2 | 9.7 | 0.00 | 0.00 | 0.00 | 81 | 1013.0 |
| 20260901075550 | 26 | 199 | 3.2 | 11.3 | 0.00 | 0.00 | 0.00 | 81 | 1013.1 |
| 20260901074545 | 26 | 167 | 4.8 | 11.3 | 0.00 | 0.00 | 0.00 | 80 | 1013.0 |
| 20260901073553 | 26 | 188 | 3.2 | 11.3 | 0.00 | 0.00 | 0.00 | 79 | 1013.1 |
| 20260901072541 | 26 | 194 | 3.2 | 11.3 | 0.00 | 0.00 | 0.00 | 78 | 1013.1 |
| 20260901071603 | 26 | 200 | 3.2 | 9.7 | 0.00 | 0.00 | 0.00 | 77 | 1013.2 |
| 20260901070617 | 26 | 178 | 3.2 | 8.0 | 0.00 | 0.00 | 0.00 | 76 | 1013.2 |
| 20260901065625 | 27 | 196 | 3.2 | 8.0 | 0.00 | 0.00 | 0.00 | 75 | 1013.2 |
| 20260901064602 | 27 | 161 | 4.8 | 12.9 | 0.00 | 0.00 | 0.00 | 75 | 1013.1 |
| 20260901063547 | 27 | 161 | 4.8 | 12.9 | 0.00 | 0.00 | 0.00 | 74 | 1013.0 |
| 20260901062526 | 27 | 186 | 3.2 | 9.7 | 0.00 | 0.00 | 0.00 | 73 | 1012.8 |
| 20260901061504 | 27 | 169 | 4.8 | 12.9 | 0.00 | 0.00 | 0.00 | 72 | 1012.7 |
| 20260901060506 | 27 | 176 | 4.8 | 12.9 | 0.00 | 0.00 | 0.00 | 71 | 1012.7 |
| 20260901055434 | 27 | 149 | 6.4 | 12.9 | 0.00 | 0.00 | 0.00 | 70 | 1012.7 |
| 20260901053254 | 28 | 206 | 6.4 | 14.5 | 0.00 | 0.00 | 0.00 | 70 | 1012.6 |
| 20260901052236 | 28 | 184 | 6.4 | 17.7 | 0.00 | 0.00 | 0.00 | 69 | 1012.5 |
| 20260901051248 | 28 | 162 | 6.4 | 19.3 | 0.00 | 0.00 | 0.00 | 69 | 1012.5 |
| 20260901050254 | 28 | 226 | 8.0 | 19.3 | 0.00 | 0.00 | 0.00 | 68 | 1012.5 |
| 20260901044111 | 29 | 173 | 6.4 | 16.1 | 0.00 | 0.00 | 0.00 | 68 | 1012.4 |
| 20260901043050 | 29 | 184 | 8.0 | 17.7 | 0.00 | 0.00 | 0.00 | 67 | 1012.4 |
| 20260901042036 | 29 | 139 | 6.4 | 17.7 | 0.00 | 0.00 | 0.00 | 67 | 1012.4 |
| 20260901041021 | 30 | 174 | 6.4 | 20.9 | 0.00 | 0.00 | 0.00 | 66 | 1012.4 |
| 20260901040006 | 30 | 190 | 8.0 | 20.9 | 0.00 | 0.00 | 0.00 | 66 | 1012.3 |
| 20260901035008 | 30 | 172 | 6.4 | 19.3 | 0.00 | 0.00 | 0.00 | 65 | 1012.3 |
| 20260901034026 | 30 | 196 | 8.0 | 19.3 | 0.00 | 0.00 | 0.00 | 64 | 1012.3 |
| 20260901033019 | 30 | 115 | 8.0 | 19.3 | 0.00 | 0.00 | 0.00 | 62 | 1012.3 |
| 20260901032006 | 30 | 128 | 6.4 | 16.1 | 0.00 | 0.00 | 0.00 | 58 | 1012.2 |
| 20260901030947 | 30 | 144 | 6.4 | 16.1 | 0.00 | 0.00 | 0.00 | 56 | 1012.1 |
| 20260901025952 | 30 | 139 | 4.8 | 16.1 | 0.00 | 0.00 | 0.00 | 52 | 1011.9 |
| 20260901024950 | 31 | 146 | 3.2 | 14.5 | 0.00 | 0.00 | 0.00 | 50 | 1011.8 |
| 20260901023932 | 31 | 132 | 0.0 | 3.2 | 0.00 | 0.00 | 0.00 | 49 | 1011.5 |
| 20260901022941 | 31 | 125 | 1.6 | 8.0 | 0.00 | 0.00 | 0.00 | 48 | 1011.3 |
| 20260901021927 | 31 | 139 | 1.6 | 9.7 | 0.00 | 0.00 | 0.00 | 47 | 1011.3 |
| 20260901015743 | 31 | 144 | 0.0 | 3.2 | 0.00 | 0.00 | 0.00 | 46 | 1010.9 |
| 20260901014735 | 32 | 120 | 1.6 | 3.2 | 0.00 | 0.00 | 0.00 | 46 | 1010.7 |
| 20260901013741 | 32 | 116 | 0.0 | 3.2 | 0.00 | 0.00 | 0.00 | 45 | 1010.7 |
| 20260901012724 | 32 | 111 | 0.0 | 3.2 | 0.00 | 0.00 | 0.00 | 45 | 1010.6 |
| 20260901011711 | 33 | 132 | 0.0 | 8.0 | 0.00 | 0.00 | 0.00 | 44 | 1010.5 |
| 20260901010641 | 33 | 109 | 1.6 | 8.0 | 0.00 | 0.00 | 0.00 | 44 | 1010.4 |
| 20260901005622 | 33 | 100 | 1.6 | 4.8 | 0.00 | 0.00 | 0.00 | 43 | 1010.4 |
| 20260901004553 | 34 | 127 | 1.6 | 8.0 | 0.00 | 0.00 | 0.00 | 43 | 1010.4 |
| 20260901003601 | 34 | 170 | 4.8 | 9.7 | 0.00 | 0.00 | 0.00 | 42 | 1010.4 |
| 20260901002608 | 35 | 148 | 4.8 | 9.7 | 0.00 | 0.00 | 0.00 | 41 | 1010.3 |
| 20260901001619 | 35 | 141 | 4.8 | 11.3 | 0.00 | 0.00 | 0.00 | 41 | 1010.2 |
| 20260901000621 | 35 | 155 | 4.8 | 16.1 | 0.00 | 0.00 | 0.00 | 40 | 1010.2 |
| 20260831235607 | 35 | 175 | 3.2 | 16.1 | 0.00 | 0.00 | 0.00 | 40 | 1010.2 |
| 20260831234555 | 36 | 130 | 4.8 | 14.5 | 0.00 | 0.00 | 0.00 | 39 | 1010.1 |
| 20260831233541 | 36 | 94 | 6.4 | 14.5 | 0.00 | 0.00 | 0.00 | 38 | 1010.2 |